Location: Unspecified
(0.0000°N, 0.0000°E)
Time: 17:30:03
(UTC+00:00)

CZ-3C DEB - Visible Passes

Search period start: 08 March 2026 00:00
Search period end: 18 March 2026 00:00
Orbit: 695 x 38890 km, 17.8° (Epoch: 13 June)

Date Brightness Start Highest point End Pass type
(mag) Time Alt. Az. Time Alt. Az. Time Alt. Az.
10 Mar ? 21:37:42 10° WSW 21:42:26 16° SW 21:42:26 16° SW visible
11 Mar ? 20:56:39 10° WSW 21:08:58 23° SSW 21:09:21 23° SSW visible
12 Mar ? 09:39:02 10° WNW 11:31:37 49° WNW 20:36:17 24° S visible
13 Mar ? 09:00:52 10° WNW 10:59:00 56° NW 20:03:13 19° SSE visible
14 Mar ? 08:23:37 10° WNW 19:21:59 42° SSW 19:30:10 12° SE visible
15 Mar ? 07:47:01 10° WNW 18:45:48 49° SSW 18:56:05 10° SE visible
